Wind_Speed
96 89 76 72 71 67 77 83 81 73 73 72 69 65 64 59 58 58 54 51 48 47 36 35 29 32 33 32 28 33 31 32 29 31 30 34 38 37 38 34 36 40 38 40
98 87 85 77 78 77 81 82 80 79 78 74 74 65 65 63 59 60 59 53 50 52 41 34 33 34 35 34 33 36 38 36 34 31 33 35 36 39 39 38 41 43 39 41
98 92 91 83 81 79 78 82 87 87 85 85 80 72 69 63 64 59 62 61 54 51 48 44 40 37 41 39 37 36 42 43 37 36 37 37 38 39 39 42 44 40 40 41
104 99 94 85 83 79 83 83 95 95 91 84 79 77 79 72 70 67 62 56 59 62 60 56 45 46 46 46 40 38 42 46 42 40 40 39 41 42 42 43 40 43 44 48
105 98 96 90 82 87 86 86 93 98 97 91 87 83 72 70 67 72 73 71 68 61 58 57 57 50 48 47 47 39 48 50 47 45 46 45 48 46 46 44 47 46 49 54
107 105 103 99 89 94 92 91 98 100 97 95 83 86 75 69 72 73 74 74 77 67 68 66 67 67 56 51 48 47 50 52 49 50 58 57 53 51 51 48 50 51 53 56
113 108 103 102 96 94 94 94 100 100 99 88 85 90 67 76 74 73 74 72 72 72 67 65 64 64 68 61 52 48 50 56 55 51 53 64 56 51 55 58 54 57 62 62
117 112 105 104 98 96 94 100 99 102 99 94 99 93 82 86 84 80 78 79 77 73 73 66 66 63 60 61 62 59 50 52 57 57 57 60 58 56 61 62 61 63 62 72
120 117 112 110 104 106 101 104 105 104 102 107 106 96 92 91 89 85 82 81 78 78 79 79 72 67 67 67 66 65 59 57 55 60 62 65 60 63 63 63 65 66 74 72
123 123 120 118 114 115 103 109 114 112 106 111 107 103 92 89 89 86 82 82 78 76 80 84 79 81 81 71 67 66 68 69 67 60 60 59 67 72 70 70 71 76 75 77
123 124 124 122 118 117 106 112 110 108 106 112 110 102 97 93 90 88 86 86 82 83 83 84 81 78 83 81 80 80 79 75 73 74 70 68 70 70 72 76 81 78 79 78
116 115 118 117 120 121 117 108 115 113 109 111 113 103 100 96 95 93 94 91 86 87 88 89 86 80 81 81 81 80 78 78 79 76 75 79 81 80 79 87 86 83 83 86
117 114 118 120 121 122 120 115 111 116 119 112 113 101 104 100 98 97 98 94 88 89 88 86 87 84 82 82 81 82 84 87 86 78 77 77 79 81 86 93 86 85 85 88
123 120 123 119 116 117 120 120 117 122 123 108 115 106 106 104 101 101 101 96 91 90 87 89 89 87 85 88 87 84 76 83 81 82 84 84 84 86 91 90 90 89 91 95
116 118 117 118 118 118 125 126 124 122 121 122 105 110 110 107 106 106 103 97 93 93 92 96 95 93 92 88 86 85 84 82 87 88 90 91 89 91 95 93 94 95 98 96
111 113 113 119 116 117 126 128 127 119 121 118 109 112 113 115 114 111 107 104 99 100 104 102 101 98 93 90 90 89 89 90 90 94 93 92 92 96 97 97 97 101 100 100
110 115 115 115 114 117 121 120 125 122 119 119 116 106 113 115 118 116 114 111 105 106 109 106 106 100 94 91 94 94 97 96 97 98 99 98 101 103 100 99 101 102 102 106
102 106 111 113 121 121 112 122 122 124 117 123 118 111 115 117 119 121 118 115 110 111 111 110 105 101 97 96 99 102 102 104 103 102 98 104 107 104 104 105 103 105 107 111
90 100 104 108 112 112 105 113 116 121 118 125 120 115 115 120 125 124 123 118 116 116 116 110 107 108 102 103 105 105 104 107 108 103 105 106 105 106 106 107 110 111 114 115
84 89 93 97 97 100 99 108 116 121 116 121 121 119 117 117 128 125 124 123 122 118 113 113 113 111 111 110 109 107 108 110 108 108 108 109 110 107 108 111 113 118 121 124
68 79 81 82 84 85 86 97 109 116 113 126 126 124 126 118 120 124 125 125 125 122 118 117 116 116 116 114 113 110 112 110 113 115 117 114 113 118 117 122 127 126 129 131
59 64 68 70 71 70 78 87 97 110 122 127 130 129 126 120 118 120 123 124 123 124 123 122 122 120 118 118 118 117 113 116 119 121 124 121 118 119 125 129 131 132 131 129
47 56 64 66 65 65 71 79 82 98 118 125 124 126 121 117 118 114 116 119 120 121 121 119 118 119 118 122 122 121 123 126 126 125 125 122 121 124 129 132 135 135 136 135
48 52 56 60 62 66 68 73 76 85 103 115 121 122 118 113 113 114 112 116 120 122 121 121 120 120 121 122 125 124 125 125 124 122 122 125 129 131 133 134 137 137 133 132
54 52 54 55 60 64 67 71 77 77 84 96 104 113 116 111 106 108 107 111 110 111 112 114 113 113 115 117 119 121 123 126 127 128 128 128 129 132 133 133 131 133 132 133
53 55 56 58 61 65 66 67 70 74 77 84 93 99 105 108 106 104 105 106 108 108 103 100 102 104 106 109 113 116 117 120 121 122 123 124 126 127 128 129 130 131 131 131
Wind_Direction
228 229 223 224 221 221 217 221 227 229 221 221 224 231 241 233 235 235 233 229 235 246 252 247 259 262 267 261 276 285 277 278 284 282 290 296 294 297 301 305 309 315 307 309
228 229 225 222 225 218 217 216 225 225 223 218 225 232 234 231 236 230 234 234 240 243 241 244 252 260 258 269 271 279 284 279 275 283 282 280 285 292 297 299 303 310 306 306
231 228 224 225 225 224 220 215 222 224 228 228 234 226 223 230 235 232 237 240 239 240 242 246 246 256 262 258 267 275 282 278 272 277 281 284 280 284 289 296 303 306 301 299
228 227 222 221 223 225 221 220 223 226 228 227 227 226 229 236 235 233 234 234 237 241 243 250 245 251 249 254 257 270 274 275 271 273 281 280 281 287 291 295 298 299 300 301
229 228 225 222 224 225 224 222 222 225 225 229 237 234 237 233 233 235 238 243 244 240 240 247 251 259 249 255 261 264 273 270 272 270 274 274 287 285 288 289 300 295 299 303
228 228 228 223 226 224 224 223 221 224 228 233 231 234 229 226 228 232 238 243 246 250 253 254 256 252 253 257 257 260 262 267 276 280 281 284 286 284 288 293 298 296 303 302
230 229 229 228 226 225 226 226 224 225 230 230 225 230 215 223 224 232 238 240 244 245 251 249 255 252 253 257 259 267 266 264 267 275 281 281 283 283 289 292 291 295 298 301
231 230 232 228 232 227 226 226 224 225 225 225 225 228 217 228 227 231 238 241 246 247 249 249 248 249 252 252 256 260 267 266 264 265 276 283 279 280 286 289 291 294 297 302
234 231 231 232 231 228 225 224 226 227 224 226 228 223 225 230 232 234 240 240 242 248 245 245 245 249 254 254 255 257 261 266 271 269 269 269 278 280 288 287 292 293 300 302
232 231 231 232 233 229 224 221 225 227 223 228 227 226 232 229 233 239 239 235 240 242 243 245 249 255 255 254 254 258 264 269 271 271 273 274 276 279 280 286 292 294 298 299
231 233 232 232 232 230 228 221 226 229 227 227 229 228 227 227 234 235 233 236 242 240 246 245 252 256 258 255 258 264 262 266 270 274 273 272 273 281 282 284 292 298 299 298
230 229 229 231 231 231 229 223 224 226 227 227 227 226 227 230 230 233 233 235 242 248 245 249 252 252 256 257 258 259 262 265 269 271 274 275 275 281 282 289 290 294 296 300
227 226 227 229 229 230 228 226 225 226 230 225 229 225 229 229 230 232 232 234 244 245 247 250 248 250 252 253 257 263 263 266 268 270 272 276 279 282 289 290 288 293 296 296
225 224 226 227 226 227 228 229 225 224 229 225 229 225 227 228 230 231 235 238 243 243 246 244 248 247 256 258 260 264 263 265 264 269 270 275 280 282 288 288 287 291 293 294
227 224 223 225 225 225 226 228 227 225 227 228 225 227 228 229 230 235 236 238 240 243 244 243 247 249 256 259 259 261 261 265 266 273 273 273 275 279 285 286 287 288 291 293
229 227 225 225 223 224 225 228 229 227 227 230 229 231 229 230 232 233 234 236 237 239 241 244 248 251 255 259 256 258 261 264 270 272 270 271 275 279 282 286 288 288 289 290
229 226 226 222 224 224 222 226 228 229 226 229 228 225 230 231 232 232 235 236 237 238 240 246 251 253 254 259 255 258 262 266 267 269 268 270 274 278 280 285 288 286 285 289
232 231 230 229 230 229 221 224 227 230 227 228 228 224 229 230 230 233 235 237 236 238 240 247 250 250 251 255 254 259 262 264 265 267 266 271 275 274 280 287 287 285 283 287
233 233 234 236 236 236 230 224 226 227 224 226 227 224 228 233 235 236 238 237 237 239 243 245 244 247 248 255 256 260 259 262 263 263 269 275 276 274 279 283 284 283 283 283
234 235 237 239 239 239 237 230 229 227 221 227 229 227 227 234 237 237 237 238 238 240 241 241 241 243 250 255 256 257 258 262 263 266 272 276 275 272 276 280 278 279 283 283
236 235 237 238 240 240 237 232 233 228 227 227 228 229 227 232 233 235 238 238 240 242 241 243 245 249 254 255 254 255 258 260 261 267 270 271 269 269 272 278 282 282 284 284
240 237 237 235 234 234 232 233 235 230 227 228 228 229 231 232 233 236 237 238 239 241 241 242 245 248 251 253 254 256 257 260 264 266 268 268 268 271 277 281 282 283 283 283
246 244 238 237 233 227 227 229 234 232 229 230 232 231 231 235 233 234 237 240 240 241 242 244 247 248 250 253 255 257 260 264 267 268 267 268 269 274 278 278 279 281 283 284
240 240 242 242 238 232 228 228 232 235 233 234 235 235 235 236 238 237 238 241 244 244 243 245 246 247 250 255 258 261 263 264 264 264 266 270 275 277 278 278 279 281 284 284
245 245 244 240 238 236 231 231 232 234 239 240 241 239 240 239 241 242 242 242 245 248 250 250 251 251 252 254 256 260 262 264 265 268 271 273 274 275 277 278 279 280 282 283
255 253 249 243 237 234 234 232 233 235 239 244 246 245 246 246 246 245 245 244 244 245 247 249 251 253 255 257 259 260 262 264 266 268 269 270 272 274 275 276 278 279 281 283
Height
10663 10679 10704 10710 10712 10717 10728 10737 10746 10756 10763 10775 10786 10789 10800 10808 10816 10824 10828 10832 10838 10843 10848 10850 10852 10855 10857 10857 10858 10859 10859 10859 10857 10857 10855 10855 10853 10852 10849 10847 10845 10844 10842 10840
10651 10675 10681 10690 10694 10706 10715 10727 10738 10742 10751 10764 10771 10780 10788 10802 10808 10815 10820 10826 10831 10838 10840 10842 10845 10848 10850 10851 10852 10851 10853 10852 10851 10850 10849 10848 10847 10845 10843 10841 10838 10836 10835 10832
10637 10651 10663 10673 10680 10697 10710 10720 10721 10728 10734 10747 10758 10769 10781 10793 10801 10809 10815 10820 10825 10827 10830 10834 10837 10840 10842 10842 10844 10845 10845 10845 10845 10844 10842 10842 10840 10838 10837 10835 10832 10829 10827 10825
10612 10631 10647 10659 10672 10684 10694 10699 10701 10710 10721 10739 10743 10764 10773 10784 10793 10803 10808 10812 10814 10817 10821 10825 10828 10831 10832 10834 10836 10837 10837 10837 10838 10837 10836 10833 10831 10830 10827 10826 10823 10820 10817 10815
10607 10621 10636 10651 10663 10663 10677 10681 10686 10697 10705 10719 10733 10750 10766 10773 10787 10796 10797 10801 10804 10806 10810 10814 10819 10823 10824 10825 10824 10827 10830 10829 10829 10830 10829 10825 10823 10820 10819 10817 10814 10810 10808 10805
10589 10603 10614 10633 10641 10643 10661 10669 10675 10684 10689 10700 10728 10733 10750 10767 10775 10776 10784 10789 10791 10796 10799 10804 10809 10813 10814 10815 10816 10816 10818 10818 10818 10820 10819 10817 10814 10812 10810 10808 10805 10801 10799 10795
10576 10590 10609 10618 10624 10632 10651 10660 10662 10665 10675 10712 10714 10712 10759 10747 10756 10763 10770 10776 10779 10784 10791 10793 10797 10800 10802 10804 10806 10808 10808 10808 10809 10810 10809 10807 10802 10801 10800 10799 10796 10792 10789 10786
10557 10576 10592 10602 10610 10623 10633 10643 10646 10652 10671 10690 10684 10706 10740 10729 10739 10748 10757 10765 10772 10777 10781 10782 10784 10786 10789 10792 10794 10797 10797 10798 10799 10800 10798 10795 10792 10789 10787 10787 10784 10781 10777 10773
10546 10557 10568 10580 10588 10598 10615 10625 10627 10637 10652 10657 10667 10695 10709 10718 10726 10737 10743 10751 10757 10761 10765 10767 10769 10773 10776 10779 10781 10783 10784 10784 10785 10785 10786 10783 10782 10778 10776 10775 10771 10769 10765 10761
10524 10530 10547 10557 10563 10570 10594 10605 10604 10616 10635 10641 10660 10680 10706 10710 10712 10720 10731 10736 10739 10742 10748 10750 10754 10758 10763 10766 10769 10771 10771 10771 10773 10772 10772 10771 10771 10767 10766 10763 10760 10756 10752 10748
10497 10508 10527 10538 10550 10565 10573 10588 10596 10611 10621 10630 10649 10670 10684 10690 10695 10703 10714 10719 10722 10726 10731 10734 10740 10745 10750 10753 10756 10757 10757 10757 10758 10758 10758 10757 10756 10754 10752 10749 10745 10741 10737 10733
10474 10486 10501 10519 10529 10538 10552 10567 10579 10587 10607 10613 10625 10655 10666 10673 10682 10688 10697 10702 10705 10710 10715 10720 10726 10731 10735 10738 10740 10741 10743 10742 10743 10743 10744 10742 10741 10738 10736 10732 10729 10725 10721 10717
10453 10466 10478 10492 10512 10528 10546 10555 10567 10576 10581 10599 10609 10650 10645 10658 10666 10671 10678 10683 10688 10694 10700 10706 10709 10713 10717 10721 10724 10726 10728 10728 10727 10729 10728 10726 10725 10722 10719 10716 10713 10708 10704 10699
10421 10441 10460 10476 10498 10502 10514 10527 10539 10549 10557 10590 10593 10623 10631 10640 10646 10655 10660 10668 10673 10678 10683 10688 10693 10694 10699 10705 10709 10711 10712 10713 10713 10714 10713 10711 10710 10708 10704 10700 10696 10691 10687 10683
10412 10429 10442 10454 10472 10483 10496 10507 10519 10533 10557 10558 10592 10600 10614 10623 10631 10637 10647 10651 10655 10658 10662 10667 10673 10678 10684 10688 10691 10694 10696 10697 10698 10697 10696 10695 10693 10690 10687 10682 10678 10673 10669 10666
10402 10419 10428 10437 10450 10463 10475 10487 10506 10527 10540 10556 10570 10585 10594 10604 10612 10619 10626 10630 10634 10634 10638 10648 10655 10661 10665 10669 10672 10677 10679 10679 10680 10680 10677 10676 10673 10670 10668 10664 10660 10655 10652 10646
10380 10394 10409 10422 10424 10432 10452 10487 10487 10503 10521 10541 10546 10570 10566 10581 10594 10604 10604 10606 10611 10614 10622 10629 10634 10643 10647 10650 10656 10659 10661 10663 10661 10659 10658 10656 10653 10651 10648 10645 10641 10637 10631 10625
10376 10386 10395 10406 10407 10411 10464 10464 10473 10488 10505 10514 10529 10544 10549 10556 10569 10575 10577 10584 10594 10603 10608 10613 10620 10625 10629 10634 10639 10641 10642 10642 10642 10641 10637 10635 10634 10633 10630 10626 10621 10615 10609 10602
10367 10374 10384 10391 10402 10420 10448 10456 10457 10465 10487 10490 10509 10520 10526 10530 10543 10554 10555 10568 10577 10582 10584 10594 10601 10604 10608 10613 10615 10618 10621 10621 10622 10619 10618 10616 10615 10614 10609 10603 10598 10591 10585 10579
10353 10358 10365 10378 10390 10413 10432 10442 10438 10443 10483 10474 10488 10500 10507 10507 10517 10537 10533 10542 10549 10557 10564 10572 10575 10581 10587 10590 10593 10597 10601 10603 10602 10598 10596 10596 10594 10591 10586 10580 10573 10566 10561 10554
10338 10344 10353 10362 10377 10396 10407 10413 10415 10437 10458 10448 10457 10472 10478 10479 10491 10498 10505 10519 10532 10541 10551 10558 10563 10568 10568 10569 10569 10577 10583 10584 10575 10576 10575 10574 10569 10564 10559 10555 10550 10544 10538 10531
10328 10332 10343 10350 10364 10380 10389 10393 10399 10414 10419 10422 10429 10446 10453 10460 10473 10480 10487 10496 10510 10518 10526 10532 10538 10542 10545 10547 10547 10555 10560 10554 10552 10549 10550 10548 10545 10541 10537 10532 10527 10520 10514 10508
10318 10325 10329 10334 10348 10354 10362 10366 10373 10382 10394 10403 10413 10424 10438 10445 10455 10463 10472 10475 10488 10497 10504 10513 10519 10524 10527 10526 10528 10535 10535 10533 10529 10529 10527 10524 10520 10516 10512 10506 10503 10497 10492 10486
10308 10311 10320 10326 10338 10342 10348 10353 10361 10367 10376 10385 10395 10407 10419 10430 10435 10445 10454 10459 10462 10475 10483 10491 10497 10503 10506 10507 10509 10514 10512 10508 10506 10507 10505 10502 10498 10493 10487 10482 10479 10474 10468 10461
10299 10302 10310 10317 10324 10328 10335 10340 10346 10352 10358 10366 10377 10388 10396 10407 10415 10424 10433 10443 10449 10453 10461 10467 10473 10477 10479 10480 10483 10486 10484 10483 10485 10482 10478 10474 10469 10465 10463 10459 10453 10447 10441 10434
10285 10293 10298 10303 10306 10315 10321 10329 10336 10342 10349 10354 10361 10373 10382 10390 10398 10405 10415 10422 10428 10432 10435 10441 10446 10450 10453 10455 10457 10457 10456 10456 10455 10453 10450 10447 10445 10442 10436 10431 10426 10420 10413 10405